Flag for Cambodia Weather past 2 weeks in Battambang, Cambodia

Now
77 °F

Light rain. Partly cloudy.


Feels Like: 78 °F
Forecast: 76 / 88 °F
Wind: 1 mph from Southwest

Location: Siemreap

Current Time: Jul 29, 2014 at 3:03:06 AM

Latest Report: Jul 29, 2014 at 1:00 AM


Visibility: 6 mi

Pressure: 29.71 "Hg

Humidity: 89%

Dew point: 73 °F

Location of BattambangLocation

Historic Weather in Battambang — Graph

°F

Battambang temperature yesterday

Maximum temperature yesterday: 90 °F (at 12:30 PM)
Minimum temperature yesterday: 77 °F (at 4:30 PM)
Average temperature yesterday: 82 °F

Past Weeks' High & Low Weather Summary

 TemperatureHumidityPressure
High97 °F (Jul 21, 6:30 PM)100% (Jul 19, 8:30 PM)29.80 "Hg (Jul 19, 8:30 PM)
Low75 °F (Jul 18, 6:00 PM)15% (Jul 22, 1:00 PM)29.56 "Hg (Jul 17, 4:00 PM)
Average83 °F80%29.71 "Hg
* Reported Jul 14 1:00 AM — Jul 29 1:00 AM, Battambang, Weather by CustomWeather, © 2014

Note: Actual official high and low records may vary slightly from our data, if they occured in-between our weather recording intervals... More about our weather records

Advertising

Battambang weather history for previous 24 hours

 ConditionsComfort  
Time TempWeatherWind HumidityBarometerVisibility
1:00 AM
Jul 29
77 °FLight rain. Partly cloudy.1 mph89%29.71 "Hg6 mi
12:00 AM77 °FPartly cloudy.2 mph89%29.74 "Hg6 mi
11:30 PM
Jul 28
77 °FLight rain. Partly cloudy.2 mph89%29.74 "Hg6 mi
11:00 PM77 °FLight rain. Partly cloudy.2 mph89%29.74 "Hg6 mi
10:30 PM77 °FLight rain. Partly cloudy.2 mph89%29.74 "Hg6 mi
10:00 PM77 °FPartly cloudy.1 mph89%29.74 "Hg6 mi
9:30 PM77 °FPartly cloudy.1 mph89%29.71 "Hg6 mi
9:00 PM77 °FPartly cloudy.1 mph89%29.71 "Hg6 mi
8:30 PM77 °FPartly cloudy.5 mph89%29.71 "Hg6 mi
8:00 PM77 °FLight rain. Partly cloudy.6 mph89%29.71 "Hg6 mi
7:30 PM77 °FLight rain. Partly cloudy.5 mph89%29.68 "Hg6 mi
7:00 PM77 °FPartly cloudy.10 mph83%29.68 "Hg6 mi
6:30 PM77 °FBroken clouds.9 mph94%29.68 "Hg6 mi
5:30 PM77 °FThunderstorms. Broken clouds.12 mph94%29.68 "Hg4 mi
5:00 PM77 °FThunderstorms. Broken clouds.13 mph89%29.65 "Hg4 mi
4:30 PM77 °FThunderstorms. Broken clouds.20 mph89%29.65 "Hg3 mi
4:00 PM88 °FScattered clouds.10 mph66%29.62 "HgN/A
3:30 PM90 °FScattered clouds.10 mph63%29.62 "HgN/A
3:00 PM86 °FScattered clouds.2 mph70%29.62 "Hg6 mi
2:30 PM86 °FLight rain. Scattered clouds.12 mph70%29.65 "Hg6 mi
2:00 PM90 °FScattered clouds.12 mph59%29.65 "HgN/A
1:30 PM90 °FScattered clouds.12 mph59%29.68 "HgN/A
1:00 PM90 °FScattered clouds.10 mph63%29.68 "HgN/A
12:30 PM90 °FScattered clouds.12 mph59%29.71 "HgN/A
12:00 PM88 °FScattered clouds.10 mph62%29.74 "HgN/A
11:30 AM88 °FScattered clouds.9 mph62%29.74 "HgN/A
10:30 AM86 °FScattered clouds.5 mph75%29.74 "HgN/A
9:30 AM84 °FScattered clouds.3 mph79%29.77 "HgN/A
9:00 AM84 °FScattered clouds.3 mph79%29.77 "HgN/A
8:30 AM82 °FScattered clouds.No wind79%29.74 "HgN/A
8:00 AM81 °FScattered clouds.No wind84%29.74 "HgN/A
7:30 AM81 °FScattered clouds.1 mph84%29.74 "HgN/A
7:00 AM79 °FScattered clouds.No wind89%29.74 "HgN/A
Weather by CustomWeather, © 2014

See weather overviewHow to use our weather pages